TimePDT,TemperatureF,Dew PointF,Humidity,Sea Level PressureIn,VisibilityMPH,Wind Direction,Wind SpeedMPH,Gust SpeedMPH,PrecipitationIn,Events,Conditions,WindDirDegrees,DateUTC
12:53 AM,51.1,39.9,66,30.03,10.0,South,5.8,-,N/A,,Overcast,170,2013-10-12 07:53:00
1:53 AM,51.1,39.9,66,30.04,10.0,SSE,5.8,-,N/A,,Overcast,160,2013-10-12 08:53:00
2:53 AM,50.0,39.9,68,30.03,10.0,South,5.8,-,N/A,,Overcast,170,2013-10-12 09:53:00
3:53 AM,50.0,39.9,68,30.03,10.0,South,5.8,-,N/A,,Overcast,190,2013-10-12 10:53:00
4:53 AM,50.0,39.9,68,30.03,10.0,South,6.9,-,N/A,,Overcast,180,2013-10-12 11:53:00
5:53 AM,48.9,39.0,69,30.04,10.0,SSE,3.5,-,N/A,,Overcast,160,2013-10-12 12:53:00
6:53 AM,46.9,39.9,77,30.04,10.0,East,3.5,-,N/A,,Overcast,100,2013-10-12 13:53:00
7:53 AM,48.9,39.9,71,30.05,10.0,Calm,Calm,-,N/A,,Overcast,0,2013-10-12 14:53:00
8:53 AM,51.1,39.9,66,30.06,10.0,Calm,Calm,-,N/A,,Overcast,0,2013-10-12 15:53:00
9:53 AM,52.0,39.9,63,30.06,10.0,SSW,4.6,-,N/A,,Overcast,210,2013-10-12 16:53:00
10:53 AM,51.1,42.1,71,30.08,9.0,SW,6.9,-,0.01,Rain,Light Rain,230,2013-10-12 17:53:00
11:53 AM,51.1,42.1,71,30.09,10.0,Calm,Calm,-,0.00,Rain,Light Rain,0,2013-10-12 18:53:00
12:53 PM,51.1,43.0,74,30.08,8.0,East,5.8,-,0.00,Rain,Light Rain,100,2013-10-12 19:53:00
1:53 PM,52.0,43.0,71,30.07,10.0,ENE,5.8,-,0.01,,Overcast,70,2013-10-12 20:53:00
2:53 PM,52.0,42.1,69,30.07,10.0,NNE,3.5,-,N/A,,Overcast,30,2013-10-12 21:53:00
3:53 PM,53.1,41.0,64,30.08,10.0,Calm,Calm,-,N/A,,Overcast,0,2013-10-12 22:53:00
4:53 PM,53.1,41.0,64,30.09,10.0,NNE,3.5,-,N/A,,Overcast,20,2013-10-12 23:53:00
5:53 PM,52.0,44.1,74,30.10,10.0,North,3.5,-,N/A,,Overcast,350,2013-10-13 00:53:00
6:53 PM,50.0,44.1,80,30.12,10.0,North,4.6,-,N/A,,Overcast,360,2013-10-13 01:53:00
7:53 PM,48.9,44.1,83,30.13,10.0,ENE,4.6,-,N/A,,Overcast,60,2013-10-13 02:53:00
8:53 PM,48.9,44.1,83,30.14,10.0,Calm,Calm,-,N/A,,Overcast,0,2013-10-13 03:53:00
9:53 PM,48.9,44.1,83,30.15,10.0,South,5.8,-,N/A,,Overcast,190,2013-10-13 04:53:00
10:53 PM,48.0,43.0,83,30.16,10.0,SSE,3.5,-,N/A,,Overcast,150,2013-10-13 05:53:00
11:53 PM,48.0,44.1,86,30.16,9.0,SE,3.5,-,N/A,,Overcast,140,2013-10-13 06:53:00